Content
SEND FEEDBACK

Daily
Averages
Monthly
Summary
Canada

QUEBEC CITY, QUEBEC


Home > North America > Canada > Quebec
Elevation: 72 meters     Latitude: 46 48N     Longitude: 071 23W

WEATHER
 
SELECT A DAY
Number of Records: 192,085;   Date Range: 6/30/96 - 7/28/14
 
SHARE

PRINT THIS DATA

[ ← Previous Day ]
WEATHER ALMANAC - 3 MAY, 2013
[ Next Day → ]
[ °F ]   °C
Weather ElementAverageHighLow
Temperature10.7 °C19 °C (3:00 pm)4 °C (5:00 am)
Dewpoint3.3 °C5 °C (9:00 am)2 °C (11:00 am)
Humidity62.4 %93 % (5:00 am)27 % (2:00 pm)
Barometer1033.2 hPa1036.9 hPa (8:00 am)1028.8 hPa (8:00 pm)
Wind Speed14 km/h20.4 km/h (2:00 am)
Wind Gust27.8 km/h (1:00 am)
Weather ElementAverage
Visibility39.9 km
Wind DirectionENE (72.3 °)

Weather ElementTotal
Precipitation---
Heating Degree Days6.8 (Base 18.3)
Growing Degree Days1.5 (Base 10)
Averaged from 30 records on 3 May, 2013
WEATHER CONDITIONS BREAKOUT
WIND DIRECTION BREAKOUT
WEATHER BY HOUR - 3 MAY, 2013
[ °F ]   °C
Local TimeTemperatureDewpointHumidityBarometerVisibilityWind DirectionWind SpeedGust SpeedPrecipitationEventsConditions
1:00 AM5 °C3 °C87 %1034.5 hPa24.1 kmENE (60°)14.8 km/h27.8 km/hPartly Cloudy
2:00 AM5 °C3.9 °C88 %1034.2 hPaEast (80°)13 km/h
2:00 AM5 °C3 °C87 %1034.9 hPa24.1 kmENE (70°)20.4 km/hPartly Cloudy
3:00 AM5 °C3 °C87 %1034.9 hPa24.1 kmENE (70°)16.7 km/hPartly Cloudy
4:00 AM5 °C3 °C87 %1035.2 hPa24.1 kmEast (80°)11.1 km/hPartly Cloudy
5:00 AM4.4 °C3.3 °C90 %1034.9 hPaEast (80°)9.3 km/h
5:00 AM4 °C3 °C93 %1035.6 hPa24.1 kmEast (90°)13 km/hPartly Cloudy
6:00 AM4 °C3 °C93 %1036.2 hPa48.3 kmENE (60°)13 km/hPartly Cloudy
7:00 AM6 °C4 °C87 %1036.6 hPa48.3 kmENE (60°)13 km/hPartly Cloudy
8:00 AM7.2 °C4.4 °C76 %1036.2 hPaEast (80°)14.8 km/h
8:00 AM7 °C4 °C81 %1036.9 hPa48.3 kmENE (60°)18.5 km/hPartly Cloudy
9:00 AM10 °C5 °C71 %1036.6 hPa48.3 kmENE (60°)20.4 km/hPartly Cloudy
10:00 AM11 °C4 °C62 %1036.2 hPa48.3 kmENE (60°)18.5 km/h27.8 km/hPartly Cloudy
11:00 AM12.2 °C2.8 °C42 %1034.5 hPaEast (100°)18.5 km/h
11:00 AM13 °C2 °C47 %1035.6 hPa48.3 kmEast (90°)20.4 km/hPartly Cloudy
12:00 PM14 °C2 °C44 %1034.5 hPa48.3 kmEast (80°)14.8 km/hPartly Cloudy
1:00 PM16 °C2 °C39 %1033.5 hPa48.3 kmNE (40°)18.5 km/hPartly Cloudy
2:00 PM16.1 °C2.2 °C27 %1031.8 hPaEast (100°)13 km/h
2:00 PM17 °C3 °C39 %1032.8 hPa48.3 kmESE (110°)13 km/hPartly Cloudy
3:00 PM19 °C3 °C35 %1031.5 hPa48.3 kmNE (50°)11.1 km/hPartly Cloudy
4:00 PM19 °C3 °C35 %1030.8 hPa48.3 kmENE (70°)11.1 km/hPartly Cloudy
5:00 PM19 °C4 °C37 %1030.1 hPa48.3 kmEast (90°)14.8 km/hScattered Clouds
6:00 PM17 °C3 °C39 %1029.8 hPa48.3 kmENE (70°)14.8 km/hScattered Clouds
7:00 PM15 °C3 °C45 %1029.8 hPa48.3 kmENE (70°)16.7 km/hPartly Cloudy
8:00 PM12.8 °C3.3 °C42 %1028.8 hPaEast (80°)11.1 km/h
8:00 PM13 °C3 °C51 %1029.8 hPa48.3 kmEast (80°)14.8 km/hPartly Cloudy
9:00 PM11 °C3 °C58 %1030.5 hPa24.1 kmENE (70°)9.3 km/hPartly Cloudy
10:00 PM10 °C4 °C66 %1030.5 hPa24.1 kmNE (50°)7.4 km/hClear
11:00 PM8.3 °C4.4 °C70 %1029.5 hPaENE (60°)5.6 km/h
11:00 PM10 °C4 °C66 %1030.1 hPa24.1 kmNE (50°)7.4 km/hClear
Hourly data recorded from CYQB, located 0 kilometers away from Quebec City, Quebec







STORIES FROM OUR PARTNERS